[[{"header":{"parameterUnit":"m.s-1","parameterCategory":1,"la1":30.2991,"la2":30.254,"lo1":-89.0895,"lo2":-89.0444,"dy":0.0017,"dx":0.0017,"nx":28,"ny":28,"refTime":"2023-09-18T09:00:00:Z","depth":0,"parameterNumber":2,"parameterNumberName":"U-component_of_WINDS"},"data":[0,0,0,0,0,0,0,0,0,0,0,0,0,0,0,0,0,0,0,0,0,0,0,0,0,0,0,0,0,0,0,0,0,0,0,0,0,0,0,0,0,0,0,0,0,0,0,0,0,0,0,0,0,0,0,0,0,0,-2.9294,-2.9294,0,-2.9257,-2.9257,-2.9256,-2.9171,-2.917,-2.9168,-2.9166,-2.913,-2.9131,-2.9131,0,0,0,0,0,0,0,0,0,0,0,0,0,-2.9293,-2.9293,-2.9294,-2.9293,-2.9293,-2.9257,-2.9257,-2.9256,-2.9172,-2.917,-2.9167,-2.9165,-2.913,-2.9131,-2.9131,0,0,0,0,0,0,0,0,0,0,0,0,0,-2.9278,-2.9293,-2.9294,-2.9247,-2.9242,-2.9257,-2.9257,-2.9256,-2.9172,-2.917,-2.9167,-2.9164,-2.913,-2.9131,-2.9132,-2.919,0,0,-2.9135,-2.9135,0,0,0,0,0,0,0,0,-2.9279,-2.9279,-2.9254,-2.925,-2.9245,-2.9216,-2.9243,-2.9234,-2.9173,-2.9199,-2.9166,-2.9163,-2.9161,-2.9159,-2.9158,-2.9189,-2.9187,-2.9135,-2.9135,-2.9136,-2.9136,0,0,0,0,0,0,0,-2.928,-2.928,-2.9279,-2.9254,-2.9248,-2.9228,-2.9223,-2.9241,-2.9195,-2.9196,-2.919,-2.9187,-2.9158,-2.9157,-2.9157,-2.9187,-2.9135,-2.9136,-2.9136,-2.9137,-2.9263,-2.9265,0,0,0,0,0,0,-2.9288,-2.9281,-2.928,-2.9278,-2.9256,-2.923,-2.9224,-2.9228,-2.9195,-2.9187,-2.9189,-2.9183,-2.9157,-2.9156,-2.9155,-2.922,-2.9136,-2.9137,-2.9137,-2.926,-2.9263,-2.9266,0,0,0,0,0,0,-2.9288,-2.9289,-2.9282,-2.9278,-2.9275,-2.9233,-2.9237,-2.9229,-2.9228,-2.9189,-2.9181,-2.9197,-2.9155,-2.9154,-2.9182,-2.9218,-2.9137,-2.9138,-2.9257,-2.9261,-2.9265,-2.9352,0,0,0,0,0,0,-2.9289,-2.9289,-2.9311,-2.9279,-2.9276,-2.9309,-2.924,-2.923,-2.923,-2.9221,-2.9194,-2.9187,-2.9153,-2.9181,-2.9183,-2.9218,-2.9139,-2.9253,-2.9258,-2.9263,-2.9346,-2.9359,-2.937,0,0,0,0,0,-2.9289,-2.9338,-2.9312,-2.9313,-2.9302,-2.9311,-2.931,-2.9269,-2.9233,-2.9254,-2.9229,-2.9188,-2.9214,-2.9184,-2.9186,-2.9222,-2.9251,-2.9257,-2.9263,-2.934,-2.9356,-2.937,0,0,0,0,0,0,-2.9376,-2.9333,-2.9304,-2.9344,-2.9332,-2.9297,-2.9323,-2.9287,-2.9285,-2.9277,-2.9227,-2.9222,-2.9257,-2.9242,-2.921,-2.9276,-2.9226,-2.9232,-2.9284,-2.9299,-2.9311,-2.9312,-2.914,0,0,0,0,0,-2.9399,-2.941,-2.9372,-2.9411,-2.9407,-2.9366,-2.9369,-2.9338,-2.9324,-2.9318,-2.9295,-2.9284,-2.9289,-2.9293,-2.9296,-2.9344,-2.9336,-2.937,-2.9382,-2.9392,-2.9398,-2.942,-2.9434,-2.9286,-2.9286,-2.9286,0,0,-2.9449,-2.9426,-2.9436,-2.9428,-2.9415,-2.9427,-2.9362,-2.9379,-2.9387,-2.9321,-2.9345,-2.9329,-2.9312,-2.935,-2.9366,-2.9339,-2.9437,-2.94,-2.9408,-2.9408,-2.9428,-2.9442,-2.9455,-2.929,-2.929,-2.9289,0,0,-2.9544,-2.9529,-2.9559,-2.9547,-2.9528,-2.9501,-2.9508,-2.9479,-2.9465,-2.9489,-2.9439,-2.9449,-2.946,-2.9449,-2.9445,-2.9537,-2.9499,-2.954,-2.9602,-2.9625,-2.9637,-2.9647,-2.9678,-2.969,-2.9547,-2.9547,-2.9547,0,-2.9607,-2.9623,-2.9579,-2.9598,-2.9595,-2.9536,-2.9565,-2.9557,-2.954,-2.954,-2.9511,-2.9522,-2.9507,-2.9541,-2.9563,-2.9563,-2.9569,-2.9542,-2.9638,-2.9648,-2.9657,-2.9686,-2.9698,-2.9552,-2.9551,-2.9551,-2.955,0,-2.9701,-2.9714,-2.974,-2.9724,-2.9725,-2.975,-2.9709,-2.9716,-2.9686,-2.9662,-2.9686,-2.9666,-2.9663,-2.967,-2.9641,-2.97,-2.9683,-2.9648,-2.9595,-2.9677,-2.9703,-2.9714,-2.9559,-2.9557,-2.9556,-2.9554,0,0,-2.9849,-2.9808,-2.9819,-2.981,-2.9785,-2.9794,-2.9816,-2.9812,-2.9818,-2.981,-2.9826,-2.9836,-2.9802,-2.9798,-2.9768,-2.9788,-2.986,-2.9749,-2.9748,-2.9769,-2.9922,-2.9948,-2.9962,-2.9836,-2.9838,-2.9839,-2.9923,0,-2.9936,-2.997,-2.9931,-2.9974,-2.9984,-2.9928,-2.9947,-2.9934,-2.9912,-2.9918,-2.9895,-2.9902,-2.9858,-2.9854,-2.9872,-2.9848,-2.989,-2.9842,-2.985,-2.985,-2.9853,-2.9976,-3.0003,-3.0083,-2.9933,-2.9935,-2.9936,0,-3.0043,-3.0038,-3.0081,-3.0052,-3.0055,-3.0073,-3.0066,-3.0073,-3.0057,-3.004,-3.0035,-2.9999,-3.0018,-2.9969,-2.9994,-2.9962,-2.9963,-2.9952,-2.9954,-2.9952,-2.9897,-2.9975,-3.0108,-3.012,-2.9952,-2.9951,-2.995,0,-3.0144,-3.0148,-3.0174,-3.0169,-3.0137,-3.015,-3.0138,-3.0119,-3.0119,-3.0114,-3.0114,-3.0112,-3.011,-3.0109,-3.0072,-3.004,-3.0102,-3.005,-3.0088,-3.0089,-3.0102,-3.0101,-3.0235,-3.0106,-3.0106,-3.0106,-3.0106,0,-3.0244,-3.0273,-3.0218,-3.0234,-3.0264,-3.022,-3.0251,-3.0232,-3.0217,-3.0228,-3.0181,-3.0192,-3.0144,-3.0151,-3.0123,-3.0148,-3.0148,-3.0134,-3.0126,-3.0137,-3.0139,-3.0136,-3.0129,-3.0109,-3.0108,-3.0108,-3.0107,0,-3.0361,-3.0326,-3.035,-3.0318,-3.0311,-3.0334,-3.0306,-3.032,-3.0295,-3.031,-3.0311,-3.0273,-3.0279,-3.0243,-3.0242,-3.0223,-3.0261,-3.0244,-3.0266,-3.026,-3.0299,-3.0295,-3.0434,-3.0449,-3.0313,-3.0314,-3.0315,0,-3.0427,-3.0447,-3.0417,-3.042,-3.041,-3.0417,-3.0417,-3.0374,-3.0376,-3.0359,-3.0375,-3.0376,-3.0375,-3.0386,-3.0358,-3.0357,-3.0339,-3.0388,-3.0338,-3.0349,-3.0337,-3.0336,-3.0337,-3.0398,-3.0399,-3.0401,-3.0402,0,-3.0546,-3.0528,-3.0529,-3.0525,-3.0526,-3.052,-3.0511,-3.0518,-3.0471,-3.0476,-3.048,-3.0479,-3.0478,-3.0479,-3.0473,-3.046,-3.0423,-3.0418,-3.0426,-3.0437,-3.0448,-3.0441,-3.0292,-3.0414,-3.0413,-3.0412,-3.0412,-3.0411,-3.0638,-3.0653,-3.0634,-3.0637,-3.0626,-3.0619,-3.0629,-3.0606,-3.0609,-3.0604,-3.0579,-3.0588,-3.0571,-3.0558,-3.0549,-3.0555,-3.0532,-3.0544,-3.0547,-3.055,-3.0556,-3.0449,-3.0554,-3.0554,-3.0553,-3.0553,-3.0553,0,-3.0754,-3.0739,-3.0742,-3.0731,-3.0733,-3.0698,-3.0687,-3.0691,-3.0699,-3.0687,-3.0686,-3.0691,-3.0693,-3.0665,-3.0663,-3.0673,-3.0656,-3.0674,-3.0672,-3.0669,-3.0578,-3.057,-3.0688,-3.0688,-3.0688,-3.0688,-3.0688,-3.0688,-3.0814,-3.0837,-3.0816,-3.0833,-3.0818,-3.0826,-3.0822,-3.0815,-3.0805,-3.0812,-3.0813,-3.0795,-3.0776,-3.0772,-3.0772,-3.0764,-3.0764,-3.0788,-3.0774,-3.0689,-3.0676,-3.0663,-3.0655,-3.0789,-3.0789,-3.0864,-3.0864,-3.0865]},{"header":{"parameterUnit":"m.s-1","parameterCategory":1,"la1":30.2991,"la2":30.254,"lo1":-89.0895,"lo2":-89.0444,"dy":0.0017,"dx":0.0017,"nx":28,"ny":28,"refTime":"2023-09-18T09:00:00:Z","depth":0,"parameterNumber":3,"parameterNumberName":"V-component_of_WINDS"},"data":[0,0,0,0,0,0,0,0,0,0,0,0,0,0,0,0,0,0,0,0,0,0,0,0,0,0,0,0,0,0,0,0,0,0,0,0,0,0,0,0,0,0,0,0,0,0,0,0,0,0,0,0,0,0,0,0,0,0,2.5467,2.5466,0,2.539,2.5389,2.5389,2.5326,2.5326,2.5325,2.5324,2.5241,2.524,2.5238,0,0,0,0,0,0,0,0,0,0,0,0,0,2.5554,2.5553,2.5467,2.5466,2.5465,2.539,2.5389,2.5388,2.5326,2.5326,2.5325,2.5324,2.5242,2.524,2.5238,0,0,0,0,0,0,0,0,0,0,0,0,0,2.5501,2.5552,2.5467,2.5425,2.5421,2.5391,2.5389,2.5388,2.5327,2.5326,2.5325,2.5324,2.5243,2.524,2.5238,2.5242,0,0,2.523,2.5229,0,0,0,0,0,0,0,0,2.5504,2.5497,2.5432,2.5428,2.5423,2.5367,2.539,2.5339,2.5327,2.5362,2.5324,2.5323,2.5284,2.5278,2.5265,2.5238,2.5234,2.523,2.5229,2.5228,2.5227,0,0,0,0,0,0,0,2.5507,2.55,2.5436,2.5431,2.5425,2.5408,2.54,2.538,2.5329,2.5359,2.5354,2.5346,2.5281,2.5268,2.5263,2.5233,2.523,2.5228,2.5227,2.5226,2.5203,2.5204,0,0,0,0,0,0,2.5518,2.5504,2.5439,2.5434,2.5462,2.5408,2.5398,2.5386,2.5329,2.532,2.5347,2.5344,2.5273,2.5266,2.526,2.5259,2.5228,2.5225,2.5224,2.5202,2.5203,2.5204,0,0,0,0,0,0,2.552,2.5513,2.5442,2.5468,2.5457,2.5407,2.5394,2.5385,2.5372,2.532,2.531,2.5344,2.5272,2.5263,2.5247,2.5255,2.5224,2.5222,2.5201,2.5203,2.5204,2.5259,0,0,0,0,0,0,2.5523,2.5514,2.5516,2.5468,2.5456,2.5432,2.5394,2.5384,2.5368,2.5363,2.5314,2.5305,2.527,2.5251,2.5244,2.5252,2.522,2.52,2.5202,2.5203,2.5256,2.5262,2.5267,0,0,0,0,0,2.5526,2.5534,2.5517,2.5509,2.5458,2.5432,2.5425,2.5386,2.5369,2.537,2.5337,2.5307,2.5256,2.525,2.5242,2.5248,2.5199,2.5201,2.5203,2.5254,2.5261,2.5267,0,0,0,0,0,0,2.5583,2.5527,2.5507,2.55,2.5472,2.5422,2.5422,2.5395,2.537,2.5365,2.5317,2.5306,2.5294,2.527,2.5264,2.5248,2.5224,2.5224,2.5265,2.5271,2.5277,2.5282,2.5218,0,0,0,0,0,2.5595,2.558,2.5532,2.553,2.5517,2.5472,2.5459,2.5432,2.54,2.5387,2.5352,2.5321,2.5298,2.5283,2.5259,2.5253,2.524,2.5254,2.5259,2.5264,2.5264,2.5257,2.5262,2.5211,2.5211,2.521,0,0,2.5619,2.5586,2.558,2.554,2.5515,2.5499,2.5462,2.5447,2.5434,2.5384,2.5366,2.534,2.5302,2.529,2.5283,2.5269,2.5276,2.5266,2.5271,2.5268,2.526,2.5265,2.5269,2.5212,2.5212,2.5211,0,0,2.5654,2.5629,2.5624,2.56,2.5563,2.5533,2.5532,2.5486,2.5467,2.5449,2.5411,2.5394,2.5356,2.5329,2.5311,2.5337,2.5307,2.533,2.5358,2.5352,2.5356,2.5359,2.5366,2.537,2.5331,2.5331,2.5331,0,2.5687,2.5664,2.5624,2.5612,2.5595,2.555,2.5544,2.5522,2.5478,2.5466,2.5452,2.5402,2.5374,2.5354,2.5361,2.5348,2.5343,2.5334,2.5359,2.5362,2.5364,2.537,2.5373,2.5334,2.5334,2.5333,2.5333,0,2.5706,2.569,2.569,2.5651,2.5634,2.5624,2.5582,2.5569,2.5544,2.5515,2.5496,2.546,2.5427,2.5421,2.5395,2.5398,2.539,2.5368,2.5342,2.5373,2.5377,2.538,2.5338,2.5337,2.5336,2.5335,0,0,2.5773,2.5713,2.5713,2.5694,2.565,2.5636,2.5624,2.5594,2.5583,2.5554,2.5541,2.551,2.5489,2.5469,2.5439,2.5434,2.5455,2.5412,2.5411,2.542,2.5453,2.5469,2.5472,2.5436,2.5436,2.5436,2.5455,0,2.58,2.5777,2.5741,2.5729,2.5713,2.5671,2.566,2.5631,2.5604,2.5585,2.5554,2.5532,2.5507,2.5494,2.5487,2.5454,2.546,2.5452,2.5421,2.542,2.543,2.5475,2.5491,2.5511,2.5457,2.5458,2.5458,0,2.5827,2.5802,2.5789,2.5746,2.5738,2.5729,2.5697,2.5681,2.5646,2.5626,2.5604,2.5572,2.5555,2.5533,2.5508,2.5503,2.5488,2.547,2.547,2.5464,2.544,2.5468,2.5517,2.5519,2.5461,2.5461,2.546,0,2.5875,2.5838,2.5826,2.5811,2.576,2.5755,2.5733,2.5698,2.5682,2.5654,2.5642,2.5613,2.5596,2.5573,2.5534,2.5522,2.5512,2.5487,2.5493,2.5494,2.5491,2.5492,2.5537,2.5486,2.5486,2.5486,2.5485,0,2.5907,2.59,2.5846,2.5838,2.5829,2.5788,2.5779,2.5753,2.5722,2.5707,2.5669,2.5655,2.5605,2.5584,2.5554,2.5536,2.5529,2.5511,2.5503,2.5514,2.5516,2.5502,2.5499,2.5486,2.5486,2.5486,2.5486,0,2.5958,2.5922,2.5905,2.5859,2.5847,2.5842,2.5802,2.5791,2.5763,2.5744,2.5737,2.5691,2.5665,2.5624,2.5586,2.5565,2.5552,2.5539,2.5564,2.5559,2.5567,2.5566,2.5603,2.5604,2.5555,2.5555,2.5556,0,2.598,2.5974,2.5928,2.5916,2.5896,2.5877,2.586,2.5819,2.5803,2.5764,2.5757,2.5729,2.5704,2.5664,2.5626,2.5596,2.5581,2.5596,2.5576,2.5587,2.5579,2.5579,2.5577,2.56,2.5601,2.5601,2.5602,0,2.6023,2.6005,2.5984,2.5956,2.5938,2.5914,2.5887,2.5879,2.5832,2.5815,2.5789,2.577,2.5732,2.5703,2.5668,2.5643,2.5614,2.5609,2.5608,2.5618,2.5632,2.5623,2.5575,2.5608,2.5607,2.5607,2.5606,2.5606,2.6058,2.605,2.6017,2.5994,2.597,2.5946,2.5934,2.5904,2.5883,2.5849,2.5826,2.5801,2.5765,2.5715,2.5692,2.5671,2.5658,2.5658,2.5657,2.5657,2.5661,2.5638,2.5664,2.5664,2.5664,2.5664,2.5664,0,2.6097,2.6073,2.6053,2.6018,2.6,2.5976,2.5946,2.5931,2.591,2.588,2.5857,2.5826,2.5798,2.5759,2.5727,2.5717,2.5703,2.571,2.5709,2.5704,2.5675,2.5677,2.5722,2.5722,2.5722,2.5722,2.5722,2.5722,2.6115,2.61,2.6078,2.6051,2.6027,2.6003,2.5988,2.5965,2.5941,2.5909,2.5886,2.5861,2.5826,2.5792,2.5765,2.5754,2.5743,2.5754,2.5739,2.5712,2.5706,2.5701,2.5703,2.5753,2.5753,2.5769,2.5769,2.5769]}]]